CW0565 Weather Reports


time (UTC)temp
C
wind
direction
speed
KPH
gust
KPH
rain 1hr
cm
rain 24hr
cm
rain mn
cm
humidity
%
barometer
mb
20260509000009 7 171 0.0 6.4 0.00 0.00 0.00 78 1022.9
20260508234509 7 171 0.0 1.6 0.00 0.00 0.00 78 1022.9
20260508233010 7 171 0.0 0.0 0.00 0.00 0.00 77 1023.0
20260508231509 7 171 0.0 3.2 0.00 0.00 0.00 76 1023.0
20260508230009 8 171 0.0 1.6 0.00 0.00 0.00 75 1023.0
20260508224518 8 171 0.0 1.6 0.00 0.00 0.00 75 1022.9
20260508223009 8 171 0.0 4.8 0.00 0.00 0.00 73 1023.0
20260508221505 8 171 0.0 1.6 0.00 0.00 0.00 73 1023.0
20260508220010 8 171 0.0 0.0 0.00 0.00 0.00 72 1023.0
20260508214522 9 171 0.0 0.0 0.00 0.00 0.00 71 1023.1
20260508213010 9 171 0.0 0.0 0.00 0.00 0.00 71 1023.1
20260508211514 9 171 0.0 0.0 0.00 0.00 0.00 70 1023.0
20260508210021 10 171 0.0 0.0 0.00 0.00 0.00 69 1023.1
20260508204510 10 171 0.0 0.0 0.00 0.00 0.00 69 1023.1
20260508203010 10 171 0.0 0.0 0.00 0.00 0.00 69 1023.1
20260508201510 10 171 0.0 0.0 0.00 0.00 0.00 68 1023.1
20260508200011 10 171 0.0 3.2 0.00 0.00 0.00 68 1023.0
20260508194510 10 171 0.0 6.4 0.00 0.00 0.00 68 1022.9
20260508193010 10 171 0.0 6.4 0.00 0.00 0.00 66 1022.8
20260508191509 10 171 0.0 8.0 0.00 0.00 0.00 62 1022.7
20260508190010 11 171 4.8 9.7 0.00 0.00 0.00 59 1022.6
20260508184514 11 171 0.0 8.0 0.00 0.00 0.00 59 1022.6
20260508183010 11 171 4.8 11.3 0.00 0.00 0.00 57 1022.6
20260508181509 11 153 4.8 12.9 0.00 0.00 0.00 50 1022.5
20260508180010 11 144 6.4 12.9 0.00 0.00 0.00 47 1022.4
20260508174512 11 138 9.7 20.9 0.00 0.00 0.00 46 1022.3
20260508173009 12 142 11.3 17.7 0.00 0.00 0.00 47 1022.3
20260508171510 12 184 4.8 12.9 0.00 0.00 0.00 43 1022.1
20260508170010 12 165 8.0 16.1 0.00 0.00 0.00 44 1022.0
20260508164509 13 217 4.8 14.5 0.00 0.00 0.00 40 1022.0
20260508163015 13 171 8.0 16.1 0.00 0.00 0.00 38 1022.0
20260508161509 13 207 9.7 16.1 0.00 0.00 0.00 36 1021.9
20260508160010 13 207 9.7 19.3 0.00 0.00 0.00 35 1022.0
20260508154510 13 186 14.5 22.5 0.00 0.00 0.00 32 1021.9
20260508153017 13 184 12.9 20.9 0.00 0.00 0.00 35 1021.9
20260508151509 13 157 8.0 17.7 0.00 0.00 0.00 36 1021.8
20260508150009 13 181 12.9 24.1 0.00 0.00 0.00 36 1022.0
20260508144510 13 159 11.3 22.5 0.00 0.00 0.00 36 1022.0
20260508143010 13 170 8.0 20.9 0.00 0.00 0.00 38 1022.1
20260508141510 13 162 9.7 25.7 0.00 0.00 0.00 35 1022.1
20260508140009 13 153 14.5 24.1 0.00 0.00 0.00 37 1022.1
20260508134511 13 138 12.9 32.2 0.00 0.00 0.00 36 1022.2
20260508133009 15 196 4.8 16.1 0.00 0.00 0.00 32 1022.2
20260508131511 14 180 4.8 11.3 0.00 0.00 0.00 32 1022.2
20260508130011 13 182 9.7 17.7 0.00 0.00 0.00 33 1022.4
20260508124510 12 165 1.6 17.7 0.00 0.00 0.00 36 1022.6
20260508123019 11 113 8.0 24.1 0.00 0.00 0.00 36 1022.6
20260508121509 12 157 11.3 20.9 0.00 0.00 0.00 34 1022.6
20260508120009 12 171 9.7 20.9 0.00 0.00 0.00 37 1022.6
20260508114509 11 189 9.7 17.7 0.00 0.00 0.00 38 1022.6
20260508113010 11 144 12.9 19.3 0.00 0.00 0.00 39 1022.5
20260508111515 11 163 6.4 19.3 0.00 0.00 0.00 44 1022.5
20260508110024 11 142 9.7 20.9 0.00 0.00 0.00 45 1022.5
20260508104515 11 132 11.3 20.9 0.00 0.00 0.00 44 1022.3
20260508103026 12 165 9.7 22.5 0.00 0.00 0.00 44 1022.2
20260508100010 12 175 17.7 27.4 0.00 0.00 0.00 34 1022.1
20260508094509 12 201 11.3 19.3 0.00 0.00 0.00 39 1022.0
20260508093011 11 153 9.7 22.5 0.00 0.00 0.00 45 1022.0
20260508091514 11 134 6.4 17.7 0.00 0.00 0.00 50 1021.9
20260508090010 11 162 9.7 16.1 0.00 0.00 0.00 50 1021.9
20260508084509 11 168 9.7 17.7 0.00 0.00 0.00 45 1021.8
20260508083009 11 205 1.6 8.0 0.00 0.00 0.00 48 1021.8
20260508081511 11 233 0.0 9.7 0.00 0.00 0.00 47 1021.7
20260508074509 8 192 8.0 11.3 0.00 0.00 0.00 52 1021.7
20260508073013 8 198 3.2 11.3 0.00 0.00 0.00 50 1021.6
20260508071510 8 355 0.0 3.2 0.00 0.00 0.00 65 1021.5
20260508070010 9 360 0.0 1.6 0.00 0.00 0.00 62 1021.5
20260508064510 10 355 0.0 1.6 0.00 0.00 0.00 55 1021.3
20260508063010 8 355 0.0 4.8 0.00 0.00 0.00 60 1021.3
20260508061510 7 355 0.0 1.6 0.00 0.00 0.00 63 1021.2
20260508060012 6 355 0.0 4.8 0.00 0.00 0.00 64 1021.1
20260508054518 5 355 0.0 4.8 0.00 0.00 0.00 68 1021.1
20260508053010 4 355 0.0 8.0 0.00 0.00 0.00 71 1021.0
20260508051511 3 355 0.0 8.0 0.00 0.00 0.00 76 1020.7
20260508050012 2 355 1.6 8.0 0.00 0.00 0.00 79 1020.8
20260508044510 2 355 1.6 8.0 0.00 0.00 0.00 81 1020.8
20260508041514 1 355 1.6 6.4 0.00 0.00 0.00 81 1020.5
20260508040009 1 355 3.2 9.7 0.00 0.00 0.00 82 1020.4
20260508034511 1 355 0.0 9.7 0.00 0.00 0.00 82 1020.2
20260508033013 1 355 3.2 14.5 0.00 0.00 0.00 82 1020.1
20260508031512 1 355 3.2 9.7 0.00 0.00 0.00 83 1020.1
20260508030009 1 360 1.6 8.0 0.00 0.00 0.00 84 1019.9
20260508024510 1 5 6.4 12.9 0.00 0.00 0.00 85 1019.8
20260508023009 0 360 4.8 9.7 0.00 0.00 0.00 85 1019.8
20260508021510 0 360 1.6 8.0 0.00 0.00 0.00 85 1019.7
20260508020009 1 5 4.8 8.0 0.00 0.00 0.00 84 1019.6
20260508014509 0 5 1.6 9.7 0.00 0.00 0.00 84 1019.6
20260508013012 1 5 6.4 9.7 0.00 0.00 0.00 84 1019.4
20260508011509 1 5 1.6 9.7 0.00 0.00 0.00 84 1019.4
20260508010021 1 5 3.2 8.0 0.00 0.00 0.00 84 1019.4
20260508004518 1 5 1.6 8.0 0.00 0.00 0.00 84 1019.5
20260508003011 1 5 1.6 9.7 0.00 0.00 0.00 83 1019.5
20260508001509 1 11 3.2 9.7 0.00 0.00 0.00 83 1019.4